TimePDT,TemperatureF,Dew PointF,Humidity,Sea Level PressureIn,VisibilityMPH,Wind Direction,Wind SpeedMPH,Gust SpeedMPH,PrecipitationIn,Events,Conditions,WindDirDegrees,DateUTC
12:53 AM,50.0,32.0,50,29.99,10.0,Calm,Calm,-,N/A,,Clear,0,2013-07-12 07:53:00
1:53 AM,48.0,32.0,54,29.99,10.0,Calm,Calm,-,N/A,,Clear,0,2013-07-12 08:53:00
2:53 AM,46.0,33.1,61,30.00,10.0,Calm,Calm,-,N/A,,Clear,0,2013-07-12 09:53:00
3:53 AM,44.1,32.0,63,30.00,10.0,Calm,Calm,-,N/A,,Clear,0,2013-07-12 10:53:00
4:53 AM,43.0,32.0,65,30.01,10.0,SSW,4.6,-,N/A,,Clear,210,2013-07-12 11:53:00
5:53 AM,39.9,30.9,70,30.02,10.0,SSW,3.5,-,N/A,,Clear,200,2013-07-12 12:53:00
6:53 AM,43.0,32.0,65,30.03,10.0,South,3.5,-,N/A,,Clear,180,2013-07-12 13:53:00
7:53 AM,55.0,35.1,47,30.01,10.0,Calm,Calm,-,N/A,,Clear,0,2013-07-12 14:53:00
8:53 AM,66.9,37.0,33,29.99,10.0,SSE,5.8,-,N/A,,Clear,160,2013-07-12 15:53:00
9:53 AM,71.1,27.0,19,29.98,10.0,South,10.4,-,N/A,,Clear,190,2013-07-12 16:53:00
10:53 AM,73.0,23.0,15,29.99,10.0,SSW,6.9,-,N/A,,Clear,210,2013-07-12 17:53:00
11:53 AM,73.9,27.0,18,29.99,10.0,SW,8.1,16.1,N/A,,Clear,220,2013-07-12 18:53:00
12:53 PM,77.0,25.0,15,29.97,10.0,South,13.8,19.6,N/A,,Clear,190,2013-07-12 19:53:00
1:53 PM,78.1,27.0,15,29.98,10.0,Variable,6.9,-,N/A,,Clear,0,2013-07-12 20:53:00
2:53 PM,78.1,30.0,17,29.98,10.0,SSW,16.1,24.2,N/A,,Clear,200,2013-07-12 21:53:00
3:53 PM,77.0,28.9,17,29.97,10.0,Variable,6.9,17.3,N/A,,Clear,0,2013-07-12 22:53:00
4:53 PM,77.0,27.0,16,29.98,10.0,SSW,9.2,19.6,N/A,,Clear,210,2013-07-12 23:53:00
5:53 PM,75.0,32.0,21,29.99,10.0,SSW,8.1,17.3,N/A,,Clear,210,2013-07-13 00:53:00
6:53 PM,72.0,33.1,24,30.00,10.0,SSW,8.1,-,N/A,,Clear,210,2013-07-13 01:53:00
7:53 PM,66.9,35.1,31,29.98,10.0,Variable,3.5,-,N/A,,Clear,0,2013-07-13 02:53:00
8:53 PM,64.9,37.0,36,29.98,10.0,SSW,5.8,-,N/A,,Clear,210,2013-07-13 03:53:00
9:53 PM,61.0,37.9,42,29.99,10.0,Calm,Calm,-,N/A,,Clear,0,2013-07-13 04:53:00
10:53 PM,55.0,37.0,51,30.01,10.0,Calm,Calm,-,N/A,,Clear,0,2013-07-13 05:53:00
11:53 PM,51.1,36.0,56,30.03,10.0,Calm,Calm,-,N/A,,Clear,0,2013-07-13 06:53:00